RADCUBE (49067 NORAD) Tracking and Keplerian Element Data

This shows tracking and keplerian element data for the satellite.

Feedback or suggestion? Click here.




ElementValue
Catalog49067
NameRADCUBE
Epoch Orbit1077
Epoch Day300.77488449
Epoch Year2021
RAAN13.232
Inclination97.5507
Eccentricity0.0028202
Argument of Perigee13.1343
Mean Anonmoly347.0613
Mean Motion15.07390818
Decay Rate2.407E-05
L11 49067U 21073B 21300.77488449 .00002407 00000-0 16187-3 0 9995
L22 49067 97.5507 13.2320 0028202 13.1343 347.0613 15.07390818 10772

Live tracking and technical data element details for RADCUBE (NORAD 49067). RADCUBE can be tracked NOW for your location showing map with azimuth and elevation plus other details from your city location.

Track the satellite on the map from your city or location and see movement details for azimuth, elevation, latitude, longitude, range, height, and movement on the map or in text.







IsCatalogInMostPopularTable: catalog: 49067, numindb: 13
Update: records affected: 1



GetName: 49067 RADCUBE

Hit Count: updated at: Thu, 28 Oct 2021 11:39:09 GMT